Temp
28 29 31 31 31 29 27 26 24 24 23 23 24 24 23 24 24 24 23 21 21 21 23 23 23 23 23 23 23 23 23 24
27 28 29 30 30 30 27 25 24 24 23 23 24 24 24 23 24 24 24 22 21 21 22 23 22 22 23 23 23 23 23 23
25 26 28 28 28 29 28 27 25 23 24 24 24 25 24 24 24 24 23 23 21 20 21 23 22 22 22 23 22 22 22 23
25 25 26 27 28 28 28 27 25 24 24 24 24 25 25 25 25 24 23 22 22 21 21 21 23 22 22 22 22 22 23 23
24 24 24 25 25 27 27 27 26 25 23 24 24 25 25 25 25 24 23 23 22 22 21 21 21 23 22 22 22 22 21 24
20 21 21 21 20 22 24 25 26 25 23 22 23 24 24 25 24 24 24 24 23 22 22 21 21 21 22 22 22 21 22 22
17 17 16 16 16 16 18 23 25 26 24 22 21 21 21 22 23 24 24 23 23 22 22 22 21 21 21 22 21 22 21 22
15 15 14 13 13 14 15 15 17 18 20 23 22 21 21 21 22 22 22 22 21 22 21 21 21 21 21 21 21 20 21 20
13 13 13 13 12 12 12 13 13 13 14 13 16 18 22 21 22 22 22 22 21 21 21 20 20 20 20 20 20 20 20 20
11 12 12 11 11 11 11 12 12 11 12 12 11 12 13 15 16 19 22 22 23 23 21 19 19 19 19 20 19 20 20 19
10 11 11 11 10 10 10 10 11 11 11 10 11 11 11 11 13 13 14 16 18 20 21 20 20 20 19 19 19 19 20 20
10 11 12 11 10 10 9 10 10 10 11 10 10 10 11 11 11 11 12 12 13 15 17 18 19 20 20 20 19 19 20 20
12 11 11 10 10 9 9 9 9 10 10 9 9 9 10 10 10 11 11 12 12 12 12 13 15 16 17 17 17 18 19 19
15 13 13 11 10 10 9 9 9 9 9 9 9 8 8 9 9 9 10 11 11 12 12 12 12 13 13 14 15 15 16 16
16 16 15 14 12 10 11 10 9 9 9 9 9 8 8 8 8 9 9 9 10 11 11 12 12 12 13 13 13 12 13 13
16 16 15 14 13 12 11 10 11 9 9 8 8 8 8 8 7 7 8 9 8 9 10 11 11 12 12 12 13 13 13 13
15 15 14 14 13 13 12 11 11 11 10 9 8 8 8 7 7 6 6 6 7 8 8 9 10 11 12 11 12 12 13 14
14 14 13 13 12 12 12 11 10 10 10 10 9 7 7 6 6 6 5 5 5 6 6 7 8 9 10 9 9 9 9 12
14 13 12 12 11 11 10 10 10 10 10 9 9 7 7 6 6 5 4 4 4 5 5 6 7 7 8 8 8 9 8 9
Height
741 736 731 731 734 739 747 753 760 766 771 775 777 779 782 785 788 791 795 800 803 806 808 811 813 816 819 821 823 825 826 827
740 737 733 731 733 733 740 747 754 762 764 767 770 772 775 779 783 786 790 794 798 801 804 807 809 811 813 815 818 820 821 823
743 740 734 732 735 732 734 740 747 754 758 761 765 767 771 774 778 781 784 787 791 795 799 802 804 806 809 811 812 815 817 818
745 741 736 731 730 731 731 735 740 746 752 756 759 762 765 767 771 775 778 783 786 789 792 795 798 800 802 805 808 810 811 813
746 741 740 737 733 729 729 731 736 741 747 749 751 754 755 760 765 770 773 777 780 783 786 789 791 794 797 799 803 805 808 806
759 755 751 743 741 737 732 729 731 735 742 747 749 751 753 756 761 763 765 769 771 776 780 783 786 788 790 792 795 797 800 802
778 776 767 759 755 748 740 732 728 731 737 743 747 751 753 753 755 756 760 764 766 769 773 776 778 780 782 784 788 791 792 793
794 785 778 774 767 759 750 742 736 735 736 737 742 746 749 750 752 753 754 760 762 762 765 768 771 773 774 777 778 781 783 785
801 794 787 782 775 768 761 755 749 746 746 743 740 743 744 747 748 748 752 752 753 755 758 761 763 768 769 770 772 773 776 777
807 800 793 788 781 776 771 766 761 757 755 752 748 745 743 743 742 743 745 747 748 749 750 752 757 761 763 765 765 767 769 770
811 804 798 795 790 785 780 775 771 768 763 756 756 757 755 751 747 746 745 745 745 744 747 749 752 752 753 756 758 761 762 763
811 808 801 799 796 792 788 783 780 776 772 770 767 765 764 762 757 755 753 750 748 745 744 744 745 746 746 747 750 754 755 757
811 808 805 802 800 797 794 789 785 783 781 779 778 774 770 766 767 757 759 753 753 749 746 744 742 742 742 742 745 747 748 748
800 803 800 802 803 801 799 795 791 787 783 779 775 772 768 767 764 762 760 759 757 754 753 747 747 744 742 740 741 743 742 744
795 795 796 798 802 804 799 797 794 790 787 783 779 776 774 772 767 765 763 762 760 755 753 753 750 750 747 743 742 744 742 740
799 799 797 797 799 800 800 796 793 791 789 786 783 780 777 772 770 766 766 762 761 759 756 752 752 753 750 745 747 741 744 739
805 804 803 803 801 799 797 798 793 791 787 785 784 780 778 777 772 770 766 762 760 757 754 755 752 755 752 751 744 746 743 741
808 807 806 806 804 802 799 796 793 791 786 782 783 781 778 777 771 767 765 760 756 756 757 756 752 751 749 747 748 742 741 737
810 809 807 805 803 801 801 798 792 788 786 784 783 780 778 775 771 769 768 764 759 756 753 751 749 749 749 747 743 741 738 737
Wind_Speed
24 25 21 21 21 22 27 31 32 30 31 30 29 28 28 27 27 27 25 27 27 27 24 23 22 22 22 21 20 20 19 17
19 23 25 18 21 21 25 29 30 31 33 31 31 29 29 29 28 27 27 26 27 29 28 25 24 24 24 24 22 19 20 19
16 24 23 23 19 25 23 27 31 34 33 32 31 30 29 29 28 27 29 29 29 30 29 27 28 25 24 24 24 21 22 20
15 16 22 20 19 22 22 24 28 33 35 31 29 29 28 27 27 28 28 30 29 29 30 31 27 29 25 26 25 25 20 21
14 10 13 13 17 12 19 23 25 27 30 30 31 29 27 27 26 27 28 29 31 31 32 31 32 26 28 24 27 26 25 20
16 16 22 21 23 18 14 16 23 25 26 30 22 25 25 24 27 26 28 26 31 31 31 31 29 30 26 29 26 29 26 25
21 24 24 25 24 24 25 13 14 21 24 26 29 25 22 19 20 19 20 23 23 29 30 30 31 30 31 28 30 26 30 27
20 22 27 29 29 30 27 30 23 28 10 21 23 25 22 23 21 19 18 21 19 18 27 29 30 32 31 31 29 33 31 32
18 24 25 26 31 34 34 34 33 28 27 25 12 5 21 24 22 22 21 23 27 28 33 28 27 29 31 31 31 31 33 33
17 20 26 28 32 33 33 33 33 34 30 28 32 28 18 13 13 4 11 18 20 17 27 29 29 30 31 29 30 31 31 33
14 20 22 26 29 31 32 32 32 31 33 37 33 30 30 29 23 20 13 9 11 13 14 22 27 27 29 30 30 31 31 31
15 16 21 21 26 26 28 30 29 29 28 30 29 29 31 29 27 24 24 22 16 8 9 12 20 27 26 27 28 28 29 30
10 14 20 22 23 24 25 26 27 27 25 24 24 25 27 29 28 28 23 22 20 21 17 11 4 6 9 11 16 26 29 28
10 9 13 15 18 15 18 22 23 24 25 24 24 26 27 28 28 26 26 25 22 18 17 18 17 13 9 5 6 11 12 16
14 12 15 13 14 20 20 18 20 22 22 22 21 22 22 22 25 24 25 23 24 25 20 15 15 14 11 11 10 11 10 12
15 15 14 16 16 14 16 22 20 19 19 21 19 19 20 20 21 23 22 23 23 20 21 21 17 13 14 15 11 10 15 13
15 14 17 18 18 18 20 18 22 22 20 18 20 20 19 18 19 20 20 20 22 22 21 20 18 17 17 18 17 13 11 15
13 14 18 18 19 20 21 24 22 20 19 17 17 18 20 20 20 22 24 24 21 20 20 21 21 18 18 20 22 20 17 13
14 17 19 20 20 19 19 21 21 19 18 17 19 20 21 21 18 19 21 22 21 20 21 20 20 19 20 22 22 24 17 17
Wind_Direction
282 281 268 244 234 212 213 210 207 208 208 209 211 209 207 211 212 213 206 211 212 214 217 219 209 214 214 214 219 217 225 231
286 276 273 261 256 232 211 204 207 211 208 207 214 208 209 210 216 215 211 211 213 215 218 217 214 216 218 214 215 221 218 225
299 287 273 260 250 249 214 214 206 209 214 213 211 214 216 215 215 219 214 213 213 215 217 221 215 218 220 220 212 217 224 218
295 283 284 296 242 245 230 220 214 211 215 214 216 218 220 216 217 217 218 219 217 216 215 219 222 213 218 217 217 216 221 224
299 328 305 295 303 281 248 224 222 214 213 221 217 213 217 219 220 225 225 223 223 223 221 219 222 218 217 218 219 220 224 232
15 10 5 16 2 334 304 283 219 215 212 222 226 225 220 223 221 229 220 225 220 225 224 222 222 225 220 218 219 217 221 225
24 28 24 25 14 9 1 309 269 218 212 213 224 226 231 232 247 227 226 226 229 220 227 225 222 222 224 221 220 220 216 221
30 34 34 33 32 30 26 23 22 12 333 221 222 232 228 230 237 231 226 237 239 229 220 225 226 224 224 222 219 221 221 220
28 22 20 21 30 34 34 35 32 32 33 29 32 302 233 226 235 232 238 223 220 230 230 223 226 231 228 224 225 224 223 225
9 25 25 20 23 25 27 31 34 36 38 37 34 36 31 9 8 328 253 248 257 238 210 210 218 231 234 231 229 229 227 226
19 15 27 25 25 24 24 27 34 32 31 34 34 34 37 40 42 31 13 321 291 268 249 216 216 224 228 229 232 233 232 230
17 19 19 30 25 22 23 23 24 24 28 30 30 33 34 36 37 42 39 36 24 341 283 255 241 235 235 227 227 230 231 232
42 25 24 21 21 18 14 16 20 17 18 25 26 29 30 30 24 33 28 32 30 30 24 24 318 260 243 237 242 235 234 235
37 36 32 27 10 19 17 10 10 10 11 13 14 16 14 16 17 17 19 18 18 24 18 27 14 14 8 331 291 282 257 258
11 15 15 26 15 1 358 8 11 5 4 5 6 5 4 2 4 7 8 6 6 12 8 7 3 357 3 3 4 334 314 302
359 357 359 2 5 5 357 351 351 354 353 354 355 354 353 357 357 358 352 356 355 358 353 358 350 346 339 348 336 345 323 315
349 350 352 352 349 348 345 344 338 337 339 344 340 344 345 345 349 347 349 347 346 346 348 342 344 338 326 324 335 315 307 304
343 343 345 342 339 337 338 335 334 334 337 340 340 337 337 338 343 346 344 340 340 336 329 323 321 326 330 324 322 323 307 299
340 338 335 333 334 340 335 333 333 340 338 343 336 336 330 330 333 334 330 329 328 327 323 319 316 312 306 307 314 317 305 292